Weather History for Atlanta Dekalb, GA

Change the Weather History Date:

Friday, May 17, 2013

  Actual Average Record
Temperature  
Mean Temperature 70 °F 70 °F  
Max Temperature 82 °F 80 °F 89 °F (2001)
Min Temperature 58 °F 59 °F 43 °F (2014)
Cooling Degree Days 5 5  
Month to date cooling degree days 31 64  
Year to date cooling degree days 66 113  
Growing Degree Days 20 (Base 50)    
Moisture  
Dew Point 58 °F    
Average Humidity 65    
Maximum Humidity 93    
Minimum Humidity 36    
Precipitation  
Precipitation 0.16 in 0.13 in 0.67 in (2004)
Month to date precipitation 4.20 2.30  
Year to date precipitation 8.87 20.74  
Sea Level Pressure  
Sea Level Pressure 30.05 in    
Wind  
Wind Speed 3 mph (North)    
Max Wind Speed 15 mph    
Max Gust Speed 24 mph    
Visibility 9 miles    
Events Rain    
T = Trace of Precipitation, MM = Missing Value Source: NWS Daily Summary

Daily Weather History Graph

Daily Weather History Graph

Search for Another Location

Airport:

Trip Planner

Search our weather history database for the weather conditions in past years. The results will help you decide how hot, cold, wet, or windy it might be!

Date:

Astronomy

May. 17, 2013 Rise Set
Actual Time 6:34 AM EDT 8:33 PM EDT
Civil Twilight 6:06 AM EDT 9:00 PM EDT
Nautical Twilight 5:33 AM EDT 9:34 PM EDT
Astronomical Twilight 4:57 AM EDT 10:10 PM EDT
Moon 12:58 PM EDT 1:32 AM EDT
Length of Visible Light 14h 54m
Length of Day
13h 58m
Waxing Crescent, 45% of the Moon is Illuminated
May 17
Waxing Crescent
May 18
First Quarter
May 25
Full
May 31
Last Quarter
Jun 8
New

Hourly Weather History & Observations

Time (EDT) Temp. Heat Index Dew Point Humidity Pressure Visibility Wind Dir Wind Speed Gust Speed Precip Events Conditions
12:53 AM 62.1 °F - 57.0 °F 84% 30.02 in 10.0 mi Calm Calm - N/A   Clear
1:53 AM 63.0 °F - 55.9 °F 78% 30.01 in 10.0 mi Calm Calm - N/A   Clear
2:53 AM 60.1 °F - 55.9 °F 86% 30.01 in 10.0 mi Calm Calm - N/A   Clear
3:53 AM 60.1 °F - 55.9 °F 86% 30.01 in 10.0 mi Calm Calm - N/A   Clear
4:53 AM 59.0 °F - 55.9 °F 90% 30.02 in 9.0 mi Calm Calm - N/A   Clear
5:53 AM 59.0 °F - 55.9 °F 90% 30.04 in 9.0 mi Calm Calm - N/A   Clear
6:53 AM 59.0 °F - 57.0 °F 93% 30.06 in 8.0 mi Calm Calm - N/A   Clear
7:53 AM 64.4 °F - 59.0 °F 83% 30.10 in 9.0 mi Calm Calm - N/A   Scattered Clouds
8:53 AM 69.1 °F - 57.9 °F 68% 30.07 in 10.0 mi Calm Calm - N/A   Mostly Cloudy
9:53 AM 73.0 °F - 60.1 °F 64% 30.08 in 10.0 mi Calm Calm - N/A   Partly Cloudy
10:53 AM 73.0 °F - 61.0 °F 66% 30.09 in 10.0 mi Calm Calm - N/A   Mostly Cloudy
11:53 AM 75.0 °F - 61.0 °F 62% 30.09 in 10.0 mi Calm Calm - N/A   Partly Cloudy
12:53 PM 75.9 °F - 61.0 °F 60% 30.08 in 10.0 mi SSE 8.1 mph - N/A   Partly Cloudy
1:53 PM 79.0 °F - 57.0 °F 47% 30.07 in 10.0 mi Variable 6.9 mph - N/A   Clear
2:53 PM 80.6 °F 80.5 °F 55.4 °F 42% 30.09 in 10.0 mi South 9.2 mph - N/A   Clear
3:53 PM 81.0 °F - 52.0 °F 36% 30.04 in 10.0 mi South 8.1 mph - N/A   Clear
4:53 PM 81.0 °F 80.8 °F 55.9 °F 42% 30.03 in 10.0 mi SSW 12.7 mph 18.4 mph N/A   Scattered Clouds
5:53 PM 80.1 °F 80.4 °F 57.0 °F 45% 30.02 in 10.0 mi SSW 5.8 mph - N/A   Partly Cloudy
6:53 PM 79.0 °F - 57.0 °F 47% 30.01 in 10.0 mi South 5.8 mph - N/A   Clear
7:53 PM 75.9 °F - 57.0 °F 52% 30.01 in 10.0 mi South 6.9 mph - N/A   Partly Cloudy
8:53 PM 75.0 °F - 57.9 °F 55% 30.01 in 10.0 mi SSE 3.5 mph - N/A   Partly Cloudy
9:53 PM 73.9 °F - 59.0 °F 59% 30.02 in 10.0 mi Calm Calm - N/A   Overcast
10:53 PM 69.1 °F - 64.0 °F 84% 30.06 in 5.0 mi South 3.5 mph - 0.01 in Rain Light Rain
11:53 PM 66.9 °F - 64.9 °F 93% 30.06 in 6.0 mi Calm Calm - 0.08 in Rain Light Rain